Regional Weather Roundup
Issued by NWS

Home | Current Version | Previous Version | Text Only | Print | Product List | Glossary Off
Versions: 1 2 3 4 5 6 7 8 9 10 11 12 13 14 15 16 17 18 19 20 21 22 23 24 25 26 27 28 29 30 31 32 33 34 35 36 37 38 39 40 41 42 43 44 45 46 47 48 49 50

000
ASUS43 KTOP 280659
RWRKS

WEATHER ROUNDUP FOR KANSAS
NATIONAL WEATHER SERVICE GOODLAND KS
200 AM CDT THU MAY 28 2015

NOTE:  "FAIR" INDICATES FEW OR NO CLOUDS BELOW 12,000 FEET WITH NO
SIGNIFICANT WEATHER AND/OR OBSTRUCTIONS TO VISIBILITY.

KSZ001>006-013>018-027>032-041>047-280800-
NORTHWEST KANSAS

CITY           SKY/WX    TMP DP  RH WIND       PRES   REMARKS
GOODLAND       PTCLDY    56  54  93 S18       30.03F
HAYS           CLOUDY    61  52  72 S9        30.01F
HILL CITY      CLOUDY    63  55  75 SW7       30.01F
RUSSELL        CLOUDY    64  55  72 SE7       29.98F
$$

KSZ061>065-074>080-084>089-280800-
SOUTHWEST KANSAS

CITY           SKY/WX    TMP DP  RH WIND       PRES   REMARKS
DODGE CITY     CLOUDY    60  56  86 E12       30.03F
ELKHART          N/A     61  55  81 E7          N/A
GARDEN CITY    MOCLDY    58  56  93 SE9       30.01F
GREAT BEND     CLOUDY    61  54  77 E5        30.03R
LIBERAL        CLOUDY    63  55  77 E13       30.04S
$$

KSZ066>073-081>083-090>101-280800-
SOUTHEAST KANSAS

CITY           SKY/WX    TMP DP  RH WIND       PRES   REMARKS
CHANUTE        MOCLDY    68  62  81 SE7       30.07F
COFFEYVILLE    MOCLDY    68  65  90 SE3       30.06F
HUTCHINSON     TSTM      62  59  90 E9        30.04F
NEWTON         CLOUDY    70  63  78 SW5       30.06F THUNDER
PARSONS        MOCLDY    69  66  90 CALM      30.08F
WICHITA INTL   CLOUDY    71  67  87 S7        30.02F THUNDER
WICHITA JABRA  CLOUDY    69  66  90 SE6       30.02F
WINFIELD       TSTM      65  63  93 SW22G44   30.11R FOG
$$

KSZ007>012-019>026-033>040-048>060-102>105-280800-
NORTHEAST KANSAS

CITY           SKY/WX    TMP DP  RH WIND       PRES   REMARKS
CONCORDIA      CLOUDY    64  58  80 S15       30.04F
EMPORIA        CLOUDY    67  60  78 SE8       30.05F
LAWRENCE       MOCLDY    65  57  75 E5        30.09F
MANHATTAN      CLOUDY    71  58  63 SE10      30.02F
OLATHE IND     MOCLDY    67  57  70 E5        30.10F
OLATHE EXE     MOCLDY    68  56  65 SE6       30.10S
SALINA         TSTM      65  61  87 N6        30.02F
TOPEKA BILLARD CLOUDY    65  60  84 E6        30.07F
TOPEKA FORBES  CLOUDY    67  58  72 SE8       30.07F
$$



USA.gov is the U.S. government's official web portal to all federal, state and local government web resources and services.